{"data":{"norad_id":60415,"intl_designator":"2024-141T","name":"STARLINK-32265","alt_names":[],"object_type":"PAYLOAD","status":"ACTIVE","operator":null,"country":"US","launch_date":"2024-08-10","launch_site_code":"AFETR","launch_vehicle":null,"mission":null,"orbit_class":"UNKNOWN","rcs_meters":null,"size_class":null,"mass_kg":null,"dimensions":null,"purposes":["comms"],"wikipedia_slug":null,"has_3d_model":false,"image_url":null,"decayed_at":null,"tle_current":{"epoch":"2026-09-21T17:09:09.520992Z","epoch_age_seconds":80635,"freshness":"FRESH","line1":"1 60415U 24141T   26264.71469353 -.00000867  00000+0 -14548-4 0  9994","line2":"2 60415  53.1602  47.7666 0001108  88.0084 272.1046 15.34386353119654","mean_motion":15.34386353,"eccentricity":0.0001108,"inclination_deg":53.1602,"raan_deg":47.7666,"arg_perigee_deg":88.0084,"mean_anomaly_deg":272.1046,"bstar":-1.4548e-5,"rev_number":11965,"period_min":93.848592773557,"perigee_km":461.98583267482,"apogee_km":463.50177186061,"semimajor_km":6840.8808022677,"source":"CELESTRAK","updated_at":"2026-09-22T09:00:49.232301Z"}}}